Regional Weather Roundup
Issued by NWS Kansas City/Pleasant Hill, MO

Home | Current Version | Previous Version | Graphics & Text | Print | Product List | Glossary Off
Versions: 1 2 3 4 5 6 7 8 9 10 11 12 13 14 15 16 17 18 19 20 21 22 23 24 25 26 27 28 29 30 31 32 33 34 35 36 37 38 39 40 41 42 43 44 45 46 47 48 49 50

000
ASUS43 KEAX 180211
RWREAX

WEATHER ROUNDUP FOR EASTERN KANSAS AND NORTHWEST MISSOURI
NATIONAL WEATHER SERVICE KANSAS CITY/PLEASANT HILL MO
900 PM CDT FRI APR 17 2015

KSZ040-057-103>105-MOZ028-029-037-043-180300-
...KANSAS CITY METROPOLITAN AREA...

CITY           SKY/WX    TMP DP  RH WIND       PRES   REMARKS
K.C. INTL      CLOUDY    64  60  87 N6        29.97R
K.C. DOWNTOWN  CLOUDY    71  59  65 NW3       29.96R
LEES SUMMIT    CLOUDY    72  56  57 NW3       29.97S
OLATHE - IXD   MOCLDY    64  57  78 CALM      29.97S
OLATHE - OJC   MOCLDY    69  59  70 CALM      29.96S
LAWRENCE       CLOUDY    62  59  90 NE5       29.96S

$$

MOZ001>008-011>017-020>025-030>033-038>040-044>046-053-054-180300-
...NORTHERN AND CENTRAL MISSOURI...

CITY           SKY/WX    TMP DP  RH WIND       PRES   REMARKS
ST. JOSEPH     CLOUDY    68  58  70 SE9       29.99R
MOSBY          CLOUDY    68  59  73 CALM      29.97R
WARRENSBURG    MOCLDY    72  55  56 NE5       29.96R
WHITEMAN AFB   PTCLDY    70  56  61 E5        29.95S
CLINTON        DRIZZLE   70  57  64 MISG      29.96R
SEDALIA        PTCLDY    71  55  56 E6        29.97S
WARSAW         NOT AVBL
MARSHALL       MOCLDY    73  59  60 E6        29.98S
CHILLICOTHE      N/A     69  60  73 CALM      29.99R
MOBERLY        PTCLDY    68  54  60 E5        30.01R
KIRKSVILLE     MOCLDY    67  56  67 S3        30.01R

$$

MOZ041-047>049-056>058-063>065-088>090-097-180300-
...EASTERN AND SOUTHERN MISSOURI...

CITY           SKY/WX    TMP DP  RH WIND       PRES   REMARKS
ST. LOUIS INTL PTCLDY    70  55  59 E7        30.01R
SPIRIT OF STL  CLEAR     67  56  67 CALM      29.99R
COLUMBIA       MOCLDY    71  55  56 NE6       29.99R
JEFFERSON CITY CLOUDY    75  55  49 NE9       29.96R
MEXICO         PTCLDY    72  59  64 E5        29.99S
HANNIBAL       PTCLDY    72  48  43 SE3       30.01R
ROLLA          CLOUDY    69  55  60 SE6       29.96F
LEBANON        PTCLDY    68  54  60 S5        30.00R
OSAGE BEACH    MOCLDY    72  52  49 NE5       29.96S
SPRINGFIELD    PTCLDY    68  57  68 S7        29.97R
BRANSON        CLOUDY    64  61  88 SE5       30.00R
NEVADA         MOCLDY    66  59  77 E3        29.98R
JOPLIN         CLOUDY    68  62  81 SE3       29.96R
WEST PLAINS    CLEAR     67  60  78 S3        30.01R

$$

IAZ060-094-KSZ022-034>040-054-083-096-NEZ052-066-093-180300-
...KANSAS...SOUTHEAST NEBRASKA AND IOWA...

CITY           SKY/WX    TMP DP  RH WIND       PRES   REMARKS
TOPEKA         CLOUDY    65  57  75 NE3       29.95F
MANHATTAN      CLOUDY    68  58  70 SE5       29.95R
EMPORIA        CLOUDY    64  58  80 SE7       29.95R
CHANUTE        CLOUDY    66  61  84 SE3       29.96R
WICHITA        CLOUDY    65  58  78 S3        29.94R
OMAHA          CLOUDY    71  53  52 E3        29.98S
LINCOLN        CLOUDY    68  55  63 S6        29.99S
FALLS CITY     CLOUDY    68  57  68 SW3       29.97R
LAMONI         CLOUDY    71  54  54 NE3       29.99S
DES MOINES     CLOUDY    74  50  42 NE3       30.00R

$$



USA.gov is the U.S. government's official web portal to all federal, state and local government web resources and services.